Location: Chmeln�
(49.6483°N, 14.9871°E)
Time: 05:23:48
(UTC+00:00)

ARIANE 5 R/B - Pass Details

Date: 18 September 2020
Orbit: 620 x 657 km, 98.2° (Epoch: 23 October)

Event Time Altitude Azimuth Distance (km) Brightness Sun altitude
Exits shadow 19:37:43 63° 41° (NE) 701 2.7 -23.9°
Drops below altitude 10° 19:41:41 10° 351° (N) 2,003 5.7 -24.4°
Sets 19:43:53 0° 349° (NNW) 2,912 6.7 -24.7°
